FW5313 Weather Reports


Display with metric or nautical units.
time (UTC)temp
F
wind
direction
speed
MPH
gust
MPH
rain 1hr
in
rain 24hr
in
rain mn
in
humidity
%
barometer
mb
20260504050547 41 178 0.0 5.0 0.00 0.00 0.00 60 1006.3
20260504045550 41 178 1.0 5.0 0.00 0.00 0.00 58 1006.5
20260504045047 41 158 2.0 4.0 0.00 0.00 0.00 57 1006.5
20260504044551 41 0 0.0 4.0 0.00 0.00 0.00 57 1006.4
20260504044047 41 266 0.0 7.0 0.00 0.00 0.00 57 1006.6
20260504043547 41 193 1.0 7.0 0.00 0.00 0.00 58 1006.5
20260504043110 41 193 0.0 3.0 0.00 0.00 0.00 58 1006.6
20260504042546 40 193 0.0 3.0 0.00 0.00 0.00 59 1006.6
20260504042048 40 178 0.0 5.0 0.00 0.00 0.00 59 1006.7
20260504041548 40 146 0.0 5.0 0.00 0.00 0.00 59 1006.7
20260504041045 39 0 1.0 5.0 0.00 0.00 0.00 57 1006.6
20260504040548 39 142 0.0 2.0 0.00 0.00 0.00 58 1006.6
20260504040058 39 0 0.0 2.0 0.00 0.00 0.00 63 1006.6
20260504035544 39 0 0.0 2.0 0.00 0.00 0.00 59 1006.7
20260504035047 39 94 0.0 2.0 0.00 0.00 0.00 59 1006.6
20260504034554 38 119 0.0 1.0 0.00 0.00 0.00 61 1006.6
20260504034049 39 0 0.0 1.0 0.00 0.00 0.00 62 1006.7
20260504033547 39 72 1.0 2.0 0.00 0.00 0.00 56 1006.6
20260504033128 38 72 0.0 2.0 0.00 0.00 0.00 59 1006.6
20260504032547 38 0 0.0 2.0 0.00 0.00 0.00 59 1006.6
20260504032047 38 72 1.0 1.0 0.00 0.00 0.00 63 1006.6
20260504031558 38 72 0.0 2.0 0.00 0.00 0.00 59 1006.5
20260504031050 38 72 1.0 2.0 0.00 0.00 0.00 59 1006.6
20260504030546 38 72 0.0 2.0 0.00 0.00 0.00 58 1006.6
20260504030115 38 72 1.0 2.0 0.00 0.00 0.00 58 1006.7
20260504025547 38 72 0.0 2.0 0.00 0.00 0.00 53 1006.7
20260504025047 38 73 1.0 2.0 0.00 0.00 0.00 59 1006.8
20260504024556 38 75 0.0 2.0 0.00 0.00 0.00 57 1006.8
20260504024046 38 75 1.0 2.0 0.00 0.00 0.00 58 1006.9
20260504023546 38 0 1.0 2.0 0.00 0.00 0.00 58 1006.8
20260504023057 38 0 0.0 2.0 0.00 0.00 0.00 58 1006.8
20260504022547 38 82 1.0 2.0 0.00 0.00 0.00 57 1006.9
20260504022050 38 82 0.0 2.0 0.00 0.00 0.00 60 1007.0
20260504021552 38 82 0.0 2.0 0.00 0.00 0.00 58 1006.8
20260504021048 38 82 1.0 2.0 0.00 0.00 0.00 60 1006.9
20260504020547 38 63 0.0 2.0 0.00 0.00 0.00 60 1006.9
20260504020057 37 0 0.0 3.0 0.00 0.00 0.00 60 1006.9
20260504015544 38 70 0.0 4.0 0.00 0.00 0.00 60 1006.9
20260504015044 38 300 0.0 4.0 0.00 0.00 0.00 59 1007.0
20260504014554 38 231 0.0 4.0 0.00 0.00 0.00 57 1007.0
20260504014043 38 178 0.0 3.0 0.00 0.00 0.00 60 1007.0
20260504013549 38 178 0.0 1.0 0.00 0.00 0.00 60 1007.0
20260504013053 38 86 0.0 2.0 0.00 0.00 0.00 62 1006.9
20260504012544 38 84 0.0 2.0 0.00 0.00 0.00 62 1007.0
20260504012044 38 286 0.0 2.0 0.00 0.00 0.00 62 1006.9
20260504011553 37 0 0.0 1.0 0.00 0.00 0.00 64 1006.7
20260504011046 37 0 0.0 1.0 0.00 0.00 0.00 62 1006.8
20260504010546 37 193 0.0 1.0 0.00 0.00 0.00 65 1006.7
20260504010059 37 0 0.0 1.0 0.00 0.00 0.00 65 1006.7
20260504005547 37 0 0.0 1.0 0.00 0.00 0.00 65 1006.6
20260504005104 37 0 0.0 1.0 0.00 0.00 0.00 65 1006.6
20260504004548 37 0 0.0 1.0 0.00 0.00 0.00 65 1006.5
20260504004046 37 2 0.0 1.0 0.00 0.00 0.00 64 1006.4
20260504003545 37 72 0.0 1.0 0.00 0.00 0.00 65 1006.3
20260504003047 37 65 0.0 2.0 0.00 0.00 0.00 65 1006.4
20260504002546 38 0 0.0 2.0 0.00 0.00 0.00 66 1006.4
20260504002048 38 65 0.0 1.0 0.00 0.00 0.00 65 1006.3
20260504001556 38 65 0.0 1.0 0.00 0.00 0.00 63 1006.3
20260504001048 39 0 0.0 1.0 0.00 0.00 0.00 62 1006.2
20260504000547 39 0 0.0 1.0 0.00 0.00 0.00 61 1006.2
20260504000058 39 77 0.0 1.0 0.00 0.00 0.00 63 1006.2
20260503235546 40 0 0.0 1.0 0.00 0.00 0.00 61 1006.2
20260503235046 41 286 0.0 1.0 0.00 0.00 0.00 59 1006.1
20260503234550 41 0 0.0 1.0 0.00 0.00 0.00 61 1006.2
20260503234046 42 0 0.0 2.0 0.00 0.00 0.00 57 1006.1
20260503233546 42 0 1.0 2.0 0.00 0.00 0.00 54 1006.0
20260503233052 43 218 0.0 2.0 0.00 0.00 0.00 57 1006.1
20260503232548 43 299 0.0 3.0 0.00 0.00 0.00 55 1006.1
20260503232045 43 276 1.0 4.0 0.00 0.00 0.00 56 1006.1
20260503231552 43 273 0.0 4.0 0.00 0.00 0.00 55 1006.0
20260503231045 43 290 1.0 3.0 0.00 0.00 0.00 56 1005.9
20260503230545 43 273 1.0 3.0 0.00 0.00 0.00 56 1006.1
20260503230110 43 285 1.0 3.0 0.00 0.00 0.00 54 1005.9
20260503225546 43 178 1.0 4.0 0.00 0.01 0.00 53 1005.9
20260503225047 43 178 1.0 5.0 0.00 0.01 0.00 53 1006.0
20260503224552 43 274 1.0 5.0 0.00 0.01 0.00 53 1006.1
20260503224045 43 283 1.0 5.0 0.00 0.01 0.00 51 1005.9
20260503223547 44 339 2.0 4.0 0.00 0.01 0.00 53 1005.9
20260503223111 43 287 1.0 4.0 0.00 0.01 0.00 53 1005.9
20260503222546 43 271 2.0 4.0 0.00 0.01 0.00 51 1005.9
20260503222045 43 276 2.0 4.0 0.00 0.01 0.00 51 1006.0
20260503221552 44 266 1.0 5.0 0.00 0.01 0.00 52 1005.9
20260503221047 44 250 3.0 5.0 0.00 0.01 0.00 51 1005.9
20260503220546 44 259 2.0 5.0 0.00 0.01 0.00 52 1005.8
20260503220057 44 193 2.0 4.0 0.00 0.01 0.00 53 1005.8
20260503215546 43 269 1.0 3.0 0.00 0.04 0.00 56 1005.9
20260503215045 44 178 1.0 3.0 0.00 0.04 0.00 51 1005.8
20260503214558 44 178 2.0 4.0 0.00 0.04 0.00 55 1005.8
20260503214044 44 247 2.0 4.0 0.00 0.04 0.00 54 1005.7
20260503213548 44 283 2.0 6.0 0.00 0.04 0.00 52 1005.8
20260503213049 45 249 2.0 6.0 0.00 0.04 0.00 51 1005.8
20260503212545 45 240 2.0 6.0 0.00 0.04 0.00 53 1005.8
20260503212046 45 297 1.0 5.0 0.00 0.04 0.00 52 1005.8
20260503211551 44 34 2.0 5.0 0.00 0.04 0.00 52 1005.9
20260503211045 44 276 3.0 6.0 0.00 0.04 0.00 54 1005.8
20260503210544 43 268 3.0 6.0 0.00 0.04 0.00 54 1005.7
20260503210049 44 244 3.0 7.0 0.00 0.04 0.00 52 1005.7
20260503205542 44 271 2.0 7.0 0.00 0.04 0.00 53 1005.7
20260503205042 44 338 3.0 7.0 0.00 0.04 0.00 52 1005.7
20260503204550 44 245 2.0 6.0 0.00 0.04 0.00 54 1005.7
20260503204045 44 277 3.0 6.0 0.00 0.04 0.00 56 1005.7
20260503203543 44 271 3.0 6.0 0.00 0.04 0.00 53 1005.7
20260503203050 44 257 2.0 6.0 0.00 0.04 0.00 53 1005.6
20260503202550 44 177 2.0 5.0 0.00 0.04 0.00 55 1005.7
20260503202046 43 178 2.0 9.0 0.00 0.04 0.00 57 1005.8
20260503201552 43 178 2.0 9.0 0.00 0.04 0.00 54 1005.6
20260503201045 43 325 3.0 9.0 0.00 0.04 0.00 55 1005.6
20260503200544 44 38 2.0 6.0 0.00 0.04 0.00 55 1005.7
20260503200054 44 263 3.0 6.0 0.00 0.04 0.00 54 1005.6
20260503195545 43 266 2.0 8.0 0.00 0.04 0.00 57 1005.7
20260503195045 43 258 2.0 8.0 0.00 0.04 0.00 57 1005.9
20260503194606 43 178 4.0 8.0 0.00 0.04 0.00 56 1005.9
20260503194049 43 316 2.0 5.0 0.00 0.04 0.00 56 1005.9
20260503193544 43 258 2.0 7.0 0.00 0.04 0.00 57 1005.9
20260503193047 43 238 2.0 7.0 0.00 0.04 0.00 58 1006.0
20260503192545 43 267 2.0 5.0 0.00 0.04 0.00 58 1006.0
20260503192043 42 268 2.0 5.0 0.00 0.04 0.00 61 1006.1
20260503191600 42 259 2.0 5.0 0.00 0.04 0.00 59 1006.1
20260503191046 42 281 2.0 11.0 0.00 0.04 0.00 57 1006.2
20260503190546 42 294 2.0 11.0 0.00 0.04 0.00 56 1006.2
20260503190050 43 307 3.0 9.0 0.00 0.04 0.00 52 1006.1
20260503185545 43 259 3.0 6.0 0.00 0.04 0.00 51 1006.1
20260503185045 44 278 2.0 6.0 0.00 0.04 0.00 50 1006.0
20260503184551 45 297 2.0 7.0 0.00 0.04 0.00 51 1006.1
20260503184045 44 279 2.0 7.0 0.00 0.04 0.00 51 1005.9
20260503183544 44 248 3.0 6.0 0.00 0.04 0.00 54 1006.1
20260503183058 43 328 2.0 6.0 0.00 0.04 0.00 53 1006.0
20260503182545 44 275 2.0 5.0 0.00 0.04 0.00 54 1006.1
20260503182045 43 259 3.0 6.0 0.00 0.04 0.00 51 1006.0
20260503181605 44 305 2.0 6.0 0.00 0.04 0.00 53 1006.1
20260503181048 43 329 2.0 7.0 0.00 0.04 0.00 52 1006.1
20260503180544 44 301 3.0 8.0 0.00 0.04 0.00 55 1006.0
20260503180054 44 264 2.0 8.0 0.00 0.04 0.00 52 1005.9
20260503175544 44 290 3.0 8.0 0.00 0.04 0.00 52 1005.9
20260503175043 44 289 2.0 7.0 0.00 0.04 0.00 48 1005.8
20260503174604 44 309 3.0 7.0 0.00 0.04 0.00 49 1006.0
20260503174045 44 178 4.0 7.0 0.00 0.04 0.00 51 1006.0
20260503173544 44 156 3.0 7.0 0.00 0.04 0.00 49 1006.1
20260503173052 44 288 3.0 7.0 0.00 0.04 0.00 53 1006.0
20260503172546 44 243 4.0 7.0 0.00 0.04 0.00 52 1006.0
20260503172045 44 257 3.0 7.0 0.00 0.04 0.00 51 1005.9
20260503171548 43 255 3.0 8.0 0.00 0.04 0.00 51 1005.9
20260503171044 43 280 3.0 8.0 0.00 0.04 0.00 53 1006.1
20260503170544 43 252 5.0 8.0 0.00 0.04 0.00 52 1005.9
20260503170105 44 148 3.0 8.0 0.00 0.04 0.00 48 1006.1
20260503150545 44 178 4.0 11.0 0.00 0.04 0.00 55 1006.6
20260503131044 39 341 1.0 4.0 0.00 0.04 0.00 74 1007.1
20260503130544 39 306 2.0 4.0 0.00 0.04 0.00 74 1007.2
20260503120117 37 253 1.0 4.0 0.00 0.04 0.00 83 1007.2
20260503110545 35 351 2.0 6.0 0.00 0.04 0.00 87 1006.9
20260503081548 35 304 1.0 3.0 0.00 0.05 0.00 89 1007.6
20260503081049 35 310 1.0 3.0 0.00 0.05 0.00 89 1007.6
20260503080550 35 358 1.0 3.0 0.00 0.05 0.00 89 1007.7